Погода в Верхнекалиновском

Россия / Астраханская область     46°01′12″N   48°07′03″E
темп.,
°C
ветер,
м/с
пор.,
м/с
влажн.,
%
обл.,
%
осадки,
мм/ч
давл.,
гПа
погр.,
м
6 мая, чт
чт601:00+14з2250100 0.0 101818
04:00+12св3448100 0.0 101962
07:00+13всв3548100 0.0 1019160
10:00+19в443599 0.0 10191851
13:00+21вюв54305 0.0 10182444
16:00+20юв653420 0.0 10172071
19:00+17юв77504 0.0 10171222
22:00+14юв23600 0.0 101865
7 мая, пт
пт701:00+12вюв225634 0.0 101725
04:00+11в22545 0.0 101712
07:00+13в2351100 0.0 101899
10:00+18вюв3438100 0.0 10181020
13:00+21ююв432693 0.0 10171946
16:00+22ю532350 0.0 10171846
19:00+19ю54315 0.0 1017490
22:00+15ююз48536 0.0 1019193
8 мая, сб
сб801:00+14ююз36617 0.0 1019104
04:00+13юз33640 0.0 101834
07:00+15ю23593 0.0 1019121
10:00+21ю44377 0.0 1019998
13:00+23ю653165 0.0 10181379
16:00+22ю553067 0.0 10171169
19:00+19ююв5536100 0.0 1017635
22:00+15юв375594 0.0 1017186
9 мая, вс
вс901:00+14юв3757100 0.0 1015153
04:00+14юв396690 0.0 1014200
07:00+17юв6136217 0.0 1013605
10:00+22юв1013390 0.0 10121070
13:00+24ююв11144171 0.0 10111449
16:00+23ююв91240100 0.0 10111329
19:00+20юв5950100 0.0 1010685
22:00+17юв3564100 0.0 1012117
10 мая, пн
пн1001:00+15з7886100 0.3 1011482
04:00+10з101483100 2.8 1014708
07:00+9з81278100 0.3 1016702
10:00+9з81183100 1.1 1017928
13:00+11зсз7972100 0.3 10181086
16:00+9зсз6981100 2.4 1019754
19:00+11с117099 0.0 1019341
22:00+8юв33804 0.0 102044